ITY1383 LIRF-LIMJ

Flight info

Callsign ITY1383
Flight time 0h 39m
Altitude 26000
Route GILIO DCT ELB DCT BETEN M729 IDONA
Aircraft A319/M-SDE3FGHIRWY/LB1

Departure

Time 2026-05-08 06:35
Airport Rome–Fiumicino Leonardo da Vinci International Airport (LIRF)

Arrival

Time 2026-05-08 07:14
Airport Genoa Cristoforo Colombo Airport (LIMJ)
Time Latitude Longitude Altitude Speed Heading
2026-05-08 06:19 41.79727 12.25639 16 ft 0 kts 295°
2026-05-08 06:26 41.79720 12.25658 14 ft 4 kts 300°
2026-05-08 06:26 41.79704 12.25686 16 ft 4 kts 327°
2026-05-08 06:26 41.79683 12.25694 14 ft 2 kts 24°
2026-05-08 06:26 41.79681 12.25693 14 ft 0 kts 25°
2026-05-08 06:29 41.79682 12.25693 14 ft 1 kts 25°
2026-05-08 06:29 41.79700 12.25704 14 ft 5 kts 25°
2026-05-08 06:29 41.79746 12.25733 16 ft 10 kts 25°
2026-05-08 06:29 41.79820 12.25779 14 ft 13 kts 25°
2026-05-08 06:30 41.79901 12.25843 14 ft 14 kts 24°
2026-05-08 06:30 41.79993 12.25897 15 ft 15 kts 24°
2026-05-08 06:30 41.80090 12.25956 14 ft 16 kts 25°
2026-05-08 06:30 41.80193 12.26019 14 ft 17 kts 25°
2026-05-08 06:31 41.80302 12.26086 14 ft 17 kts 25°
2026-05-08 06:31 41.80376 12.26208 16 ft 17 kts 69°
2026-05-08 06:31 41.80419 12.26364 17 ft 18 kts 70°
2026-05-08 06:31 41.80463 12.26525 17 ft 19 kts 70°
2026-05-08 06:32 41.80509 12.26692 17 ft 19 kts 70°
2026-05-08 06:32 41.80558 12.26870 13 ft 21 kts 70°
2026-05-08 06:32 41.80623 12.27035 13 ft 20 kts 28°
2026-05-08 06:32 41.80752 12.27056 14 ft 18 kts
2026-05-08 06:33 41.80847 12.27022 14 ft 10 kts 339°
2026-05-08 06:33 41.80901 12.26995 14 ft 8 kts 339°
2026-05-08 06:33 41.80956 12.26957 13 ft 10 kts 302°
2026-05-08 06:33 41.80950 12.26899 13 ft 1 kts 250°
2026-05-08 06:34 41.80949 12.26896 13 ft 0 kts 250°
2026-05-08 06:34 41.80925 12.26805 14 ft 41 kts 250°
2026-05-08 06:34 41.80730 12.26099 21 ft 116 kts 250°
2026-05-08 06:34 41.80371 12.24805 69 ft 167 kts 250°
2026-05-08 06:35 41.79978 12.23382 747 ft 165 kts 248°
2026-05-08 06:35 41.79572 12.21939 1449 ft 166 kts 245°
2026-05-08 06:35 41.79019 12.20548 2023 ft 174 kts 226°
2026-05-08 06:35 41.78050 12.19511 2485 ft 189 kts 211°
2026-05-08 06:36 41.76857 12.18536 2993 ft 214 kts 208°
2026-05-08 06:36 41.75498 12.17481 3483 ft 238 kts 210°
2026-05-08 06:36 41.74007 12.16299 4132 ft 256 kts 211°
2026-05-08 06:36 41.72464 12.15038 5041 ft 263 kts 212°
2026-05-08 06:37 41.70920 12.13671 5944 ft 271 kts 220°
2026-05-08 06:37 41.69888 12.11562 6743 ft 278 kts 256°
2026-05-08 06:37 41.69906 12.08991 7592 ft 281 kts 289°
2026-05-08 06:37 41.70985 12.06847 8509 ft 283 kts 323°
2026-05-08 06:38 41.72738 12.05692 9477 ft 283 kts 342°
2026-05-08 06:38 41.74613 12.04832 10406 ft 287 kts 339°
2026-05-08 06:38 41.76311 12.03345 11049 ft 304 kts 316°
2026-05-08 06:38 41.77624 12.00975 11347 ft 330 kts 304°
2026-05-08 06:39 41.78906 11.98285 11608 ft 354 kts 303°
2026-05-08 06:39 41.80232 11.95419 12059 ft 368 kts 302°
2026-05-08 06:39 41.81580 11.92475 12740 ft 374 kts 303°
2026-05-08 06:39 41.82958 11.89478 13458 ft 380 kts 303°
2026-05-08 06:40 41.84360 11.86450 14126 ft 385 kts 303°
2026-05-08 06:40 41.85763 11.83368 14750 ft 390 kts 299°
2026-05-08 06:40 41.86858 11.80008 15385 ft 395 kts 288°
2026-05-08 06:40 41.87510 11.76405 16024 ft 399 kts 280°
2026-05-08 06:41 41.88036 11.72742 16675 ft 402 kts 280°
2026-05-08 06:41 41.88573 11.69031 17316 ft 406 kts 280°
2026-05-08 06:41 41.89119 11.65294 17971 ft 410 kts 280°
2026-05-08 06:41 41.89934 11.61617 18587 ft 414 kts 290°
2026-05-08 06:42 41.91241 11.58146 19181 ft 419 kts 301°
2026-05-08 06:42 41.93002 11.55019 19753 ft 423 kts 311°
2026-05-08 06:42 41.95037 11.52155 20299 ft 425 kts 313°
2026-05-08 06:42 41.96398 11.50243 20669 ft 427 kts 312°
2026-05-08 06:43 41.98449 11.47348 21203 ft 430 kts 312°
2026-05-08 06:43 42.00512 11.44420 21722 ft 432 kts 311°
2026-05-08 06:43 42.03261 11.40501 22394 ft 436 kts 311°
2026-05-08 06:43 42.04671 11.38492 22727 ft 438 kts 311°
2026-05-08 06:44 42.06759 11.35517 23257 ft 439 kts 311°
2026-05-08 06:44 42.08860 11.32522 23721 ft 441 kts 311°
2026-05-08 06:44 42.10971 11.29510 24142 ft 443 kts 311°
2026-05-08 06:44 42.13094 11.26480 24533 ft 446 kts 311°
2026-05-08 06:45 42.15200 11.23473 24910 ft 448 kts 311°
2026-05-08 06:45 42.17379 11.20363 25292 ft 450 kts 311°
2026-05-08 06:45 42.19504 11.17329 25670 ft 453 kts 311°
2026-05-08 06:45 42.21675 11.14228 25890 ft 454 kts 311°
2026-05-08 06:46 42.23856 11.11099 25936 ft 461 kts 311°
2026-05-08 06:46 42.26049 11.07938 25940 ft 464 kts 311°
2026-05-08 06:46 42.28261 11.04749 25941 ft 465 kts 311°
2026-05-08 06:46 42.30473 11.01559 25946 ft 465 kts 311°
2026-05-08 06:47 42.32684 10.98367 25943 ft 465 kts 311°
2026-05-08 06:47 42.34893 10.95177 25939 ft 465 kts 311°
2026-05-08 06:47 42.37107 10.91980 25940 ft 465 kts 311°
2026-05-08 06:47 42.39319 10.88786 25938 ft 465 kts 311°
2026-05-08 06:48 42.41504 10.85631 25945 ft 465 kts 311°
2026-05-08 06:48 42.43711 10.82438 25944 ft 465 kts 311°
2026-05-08 06:48 42.45918 10.79244 25943 ft 465 kts 311°
2026-05-08 06:48 42.48129 10.76044 25942 ft 465 kts 311°
2026-05-08 06:49 42.50358 10.72806 25943 ft 465 kts 310°
2026-05-08 06:49 42.52536 10.69634 25947 ft 464 kts 310°
2026-05-08 06:49 42.54731 10.66434 25947 ft 464 kts 310°
2026-05-08 06:49 42.56929 10.63226 25947 ft 463 kts 310°
2026-05-08 06:50 42.59121 10.60027 25954 ft 463 kts 310°
2026-05-08 06:50 42.61311 10.56828 25971 ft 463 kts 310°
2026-05-08 06:50 42.63507 10.53620 25966 ft 463 kts 310°
2026-05-08 06:50 42.65700 10.50408 25958 ft 463 kts 310°
2026-05-08 06:51 42.67886 10.47203 25950 ft 463 kts 310°
2026-05-08 06:51 42.70080 10.43982 25947 ft 463 kts 310°
2026-05-08 06:51 42.72352 10.40879 25952 ft 466 kts 316°
2026-05-08 06:51 42.74953 10.38218 25951 ft 469 kts 325°
2026-05-08 06:52 42.77766 10.36042 25959 ft 470 kts 328°
2026-05-08 06:52 42.80665 10.33876 25959 ft 470 kts 328°
2026-05-08 06:52 42.83492 10.31752 25959 ft 469 kts 328°
2026-05-08 06:52 42.86340 10.29605 25958 ft 469 kts 328°
2026-05-08 06:53 42.89199 10.27441 25966 ft 469 kts 328°
2026-05-08 06:53 42.92053 10.25280 25964 ft 469 kts 328°
2026-05-08 06:53 42.94906 10.23120 25963 ft 469 kts 328°
2026-05-08 06:53 42.97759 10.20956 25965 ft 469 kts 328°
2026-05-08 06:54 43.00614 10.18787 25974 ft 469 kts 327°
2026-05-08 06:54 43.03438 10.16638 25972 ft 468 kts 327°
2026-05-08 06:54 43.06280 10.14475 25969 ft 468 kts 327°
2026-05-08 06:54 43.09126 10.12309 25969 ft 468 kts 327°
2026-05-08 06:55 43.11981 10.10139 25970 ft 468 kts 328°
2026-05-08 06:55 43.14825 10.07977 25971 ft 468 kts 327°
2026-05-08 06:55 43.17674 10.05803 25970 ft 468 kts 327°
2026-05-08 06:55 43.20520 10.03627 25981 ft 468 kts 327°
2026-05-08 06:56 43.23360 10.01453 25988 ft 467 kts 327°
2026-05-08 06:56 43.26195 9.99284 25989 ft 467 kts 328°
2026-05-08 06:56 43.29032 9.97112 25991 ft 466 kts 327°
2026-05-08 06:56 43.31864 9.94937 25990 ft 466 kts 327°
2026-05-08 06:57 43.34692 9.92760 25991 ft 466 kts 327°
2026-05-08 06:57 43.37516 9.90585 25988 ft 466 kts 327°
2026-05-08 06:57 43.40346 9.88397 25993 ft 466 kts 327°
2026-05-08 06:57 43.43171 9.86211 25994 ft 465 kts 328°
2026-05-08 06:58 43.45956 9.84061 25995 ft 465 kts 328°
2026-05-08 06:58 43.48773 9.81891 25966 ft 460 kts 328°
2026-05-08 06:58 43.51597 9.79716 24884 ft 460 kts 328°
2026-05-08 06:58 43.54422 9.77529 23133 ft 476 kts 328°
2026-05-08 06:59 43.57315 9.75281 22067 ft 474 kts 329°
2026-05-08 06:59 43.60114 9.73109 21300 ft 464 kts 329°
2026-05-08 06:59 43.62916 9.70930 20370 ft 460 kts 329°
2026-05-08 06:59 43.65688 9.68776 19474 ft 455 kts 329°
2026-05-08 07:00 43.68439 9.66635 18592 ft 452 kts 329°
2026-05-08 07:00 43.71157 9.64520 17699 ft 446 kts 329°
2026-05-08 07:00 43.73843 9.62428 16898 ft 440 kts 329°
2026-05-08 07:00 43.76502 9.60348 16023 ft 436 kts 329°
2026-05-08 07:01 43.79123 9.58297 15260 ft 431 kts 330°
2026-05-08 07:01 43.81717 9.56269 14510 ft 426 kts 329°
2026-05-08 07:01 43.84292 9.54255 13781 ft 422 kts 330°
2026-05-08 07:01 43.86838 9.52260 13021 ft 418 kts 330°
2026-05-08 07:02 43.89352 9.50286 12326 ft 413 kts 330°
2026-05-08 07:02 43.91838 9.48330 11620 ft 408 kts 330°
2026-05-08 07:02 43.94258 9.46424 11139 ft 388 kts 330°
2026-05-08 07:02 43.96512 9.44649 10933 ft 357 kts 330°
2026-05-08 07:03 43.98517 9.42857 10806 ft 329 kts 322°
2026-05-08 07:03 44.00156 9.40809 10659 ft 306 kts 315°
2026-05-08 07:03 44.01627 9.38762 10370 ft 294 kts 315°
2026-05-08 07:03 44.03063 9.36768 10133 ft 291 kts 315°
2026-05-08 07:04 44.04491 9.34784 9917 ft 289 kts 315°
2026-05-08 07:04 44.05915 9.32807 9799 ft 290 kts 315°
2026-05-08 07:04 44.07334 9.30832 9649 ft 288 kts 315°
2026-05-08 07:04 44.08753 9.28857 9529 ft 288 kts 315°
2026-05-08 07:05 44.10165 9.26897 9395 ft 287 kts 315°
2026-05-08 07:05 44.11580 9.24932 9260 ft 287 kts 315°
2026-05-08 07:05 44.13005 9.22952 8712 ft 292 kts 315°
2026-05-08 07:05 44.14428 9.20974 8378 ft 287 kts 315°
2026-05-08 07:06 44.15862 9.19057 7941 ft 285 kts 322°
2026-05-08 07:06 44.17519 9.17710 7737 ft 266 kts 339°
2026-05-08 07:06 44.19251 9.17071 7409 ft 254 kts 354°
2026-05-08 07:06 44.20989 9.16971 7018 ft 246 kts 359°
2026-05-08 07:07 44.22677 9.16915 6631 ft 239 kts 359°
2026-05-08 07:07 44.24321 9.16852 6234 ft 233 kts 359°
2026-05-08 07:07 44.25924 9.16789 5837 ft 228 kts 359°
2026-05-08 07:07 44.27474 9.16731 5426 ft 224 kts
2026-05-08 07:08 44.29025 9.16674 5030 ft 222 kts
2026-05-08 07:08 44.30558 9.16614 4644 ft 219 kts
2026-05-08 07:08 44.32004 9.16300 4596 ft 203 kts 343°
2026-05-08 07:08 44.33222 9.15403 4527 ft 192 kts 324°
2026-05-08 07:09 44.34137 9.14080 4335 ft 190 kts 306°
2026-05-08 07:09 44.34708 9.12440 4105 ft 188 kts 289°
2026-05-08 07:09 44.35118 9.10705 3853 ft 188 kts 290°
2026-05-08 07:09 44.35529 9.08974 3581 ft 187 kts 289°
2026-05-08 07:10 44.35930 9.07250 3325 ft 186 kts 289°
2026-05-08 07:10 44.36327 9.05534 3061 ft 185 kts 290°
2026-05-08 07:10 44.36721 9.03825 2809 ft 185 kts 289°
2026-05-08 07:10 44.37114 9.02120 2541 ft 184 kts 290°
2026-05-08 07:11 44.37504 9.00427 2287 ft 181 kts 290°
2026-05-08 07:11 44.37889 8.98795 1990 ft 174 kts 291°
2026-05-08 07:11 44.38320 8.97243 1722 ft 167 kts 295°
2026-05-08 07:11 44.38743 8.95771 1500 ft 157 kts 294°
2026-05-08 07:12 44.39089 8.94392 1360 ft 145 kts 292°
2026-05-08 07:12 44.39373 8.93046 1171 ft 144 kts 289°
2026-05-08 07:12 44.39645 8.91714 960 ft 142 kts 290°
2026-05-08 07:12 44.39950 8.90401 697 ft 141 kts 291°
2026-05-08 07:13 44.40220 8.89088 520 ft 140 kts 289°
2026-05-08 07:13 44.40486 8.87769 381 ft 142 kts 289°
2026-05-08 07:13 44.40744 8.86448 173 ft 141 kts 290°
2026-05-08 07:13 44.41003 8.85137 21 ft 131 kts 291°
2026-05-08 07:14 44.41214 8.84095 23 ft 88 kts 285°
2026-05-08 07:14 44.41329 8.83506 22 ft 39 kts 285°
2026-05-08 07:14 44.41394 8.83201 23 ft 32 kts 299°
2026-05-08 07:14 44.41523 8.83091 24 ft 17 kts 22°
2026-05-08 07:15 44.41537 8.83232 26 ft 16 kts 105°
2026-05-08 07:15 44.41506 8.83395 22 ft 19 kts 104°
2026-05-08 07:15 44.41469 8.83578 23 ft 20 kts 105°
2026-05-08 07:15 44.41429 8.83777 18 ft 23 kts 105°
2026-05-08 07:16 44.41388 8.83991 19 ft 23 kts 105°
2026-05-08 07:16 44.41343 8.84219 16 ft 25 kts 107°
2026-05-08 07:16 44.41323 8.84420 20 ft 20 kts 58°
2026-05-08 07:16 44.41387 8.84542 18 ft 14 kts 52°
2026-05-08 07:17 44.41407 8.84669 18 ft 14 kts 105°
2026-05-08 07:17 44.41386 8.84784 18 ft 13 kts 95°
2026-05-08 07:17 44.41399 8.84874 18 ft 10 kts 61°
2026-05-08 07:17 44.41421 8.84928 18 ft 6 kts 60°
2026-05-08 07:18 44.41429 8.84948 18 ft 1 kts 59°
2026-05-08 07:18 44.41430 8.84950 18 ft 0 kts 59°